Content
SEND FEEDBACK

Daily
Averages
Monthly
Summary
Switzerland

GENEVA, SWITZERLAND


Home > Europe > Switzerland
Elevation: 415 meters     Latitude: 46 15N     Longitude: 006 08E

WEATHER
 
SELECT A DAY
Number of Records: 315,773;   Date Range: 7/1/96 - 11/27/14
 
SHARE

PRINT THIS DATA

[ ← Previous Day ]
WEATHER ALMANAC - 8 FEBRUARY, 2013
[ Next Day → ]
[ °F ]   °C
Weather ElementAverageHighLow
Temperature-0.8 °C3 °C (1:20 pm)-4 °C (6:20 am)
Dewpoint-4.9 °C-3 °C (12:20 am)-7.8 °C (2:00 pm)
Humidity72.7 %93 % (1:50 am)34 % (2:00 pm)
Barometer1014.6 hPa1019.3 hPa (11:00 pm)1013.2 hPa (3:20 am)
Wind Speed5.1 km/h16.7 km/h (3:00 pm)
Weather ElementAverage
Visibility12.4 km
Wind DirectionESE (112.7 °)

Weather ElementTotal
Precipitation---
Heating Degree Days18.8 (Base 18.3)
Averaged from 66 records on 8 February, 2013
WEATHER CONDITIONS BREAKOUT
WIND DIRECTION BREAKOUT
WEATHER BY HOUR - 8 FEBRUARY, 2013
[ °F ]   °C
Local TimeTemperatureDewpointHumidityBarometerVisibilityWind DirectionWind SpeedGust SpeedPrecipitationEventsConditions
12:20 AM0 °C-3 °C80 %1015.2 hPa10 kmSSW (210°)7.4 km/hMostly Cloudy
12:50 AM-1 °C-3 °C86 %1014.2 hPa10 kmVariable1.9 km/hSnowLight Snow Showers
1:00 AM-1.1 °C-3.3 °C81 %1016.9 hPa35.4 kmSW (220°)7.4 km/hMostly Cloudy
1:20 AM-1 °C-3 °C86 %1014.2 hPa10 kmVariable1.9 km/hScattered Clouds
1:50 AM-2 °C-3 °C93 %1014.2 hPa10 kmVariable1.9 km/hScattered Clouds
2:00 AM-1.7 °C-3.3 °C84 %1016.6 hPaSSE (150°)3.7 km/h
2:50 AM-3 °C-4 °C93 %1014.2 hPa10 kmNorth (360°)3.7 km/hMostly Cloudy
3:00 AM-1.7 °C-3.3 °C84 %1016.3 hPaWest (280°)1.9 km/h
3:20 AM-2 °C-3 °C93 %1013.2 hPa10 kmCalmMostly Cloudy
3:50 AM-2 °C-3 °C93 %1013.2 hPa10 kmWSW (240°)7.4 km/hMostly Cloudy
4:20 AM-3 °C-4 °C93 %1013.2 hPa10 kmSW (230°)5.6 km/hMostly Cloudy
4:50 AM-2 °C-4 °C86 %1013.2 hPa10 kmSW (230°)7.4 km/hMostly Cloudy
5:00 AM-2.2 °C-4.4 °C81 %1015.9 hPaWNW (290°)3.7 km/h
5:20 AM-2 °C-4 °C86 %1013.2 hPa10 kmVariable1.9 km/hMostly Cloudy
5:50 AM-3 °C-4 °C93 %1013.2 hPa10 kmWSW (250°)3.7 km/hScattered Clouds
6:00 AM-2.8 °C-4.4 °C84 %1015.9 hPaSSW (200°)1.9 km/h
6:20 AM-4 °C-5 °C93 %1013.2 hPa10 kmVariable1.9 km/hScattered Clouds
6:50 AM-3 °C-4 °C93 %1013.2 hPa10 kmVariable1.9 km/hScattered Clouds
7:00 AM-2.8 °C-4.4 °C85 %1015.9 hPa35.4 kmSouth (180°)3.7 km/hScattered Clouds
7:20 AM-3 °C-4 °C93 %1013.2 hPa10 kmVariable1.9 km/hScattered Clouds
7:50 AM-3 °C-4 °C93 %1013.2 hPa10 kmWest (270°)7.4 km/hScattered Clouds
8:00 AM-2.2 °C-4.4 °C78 %1016.3 hPaWSW (250°)5.6 km/h
8:20 AM-3 °C-4 °C93 %1013.2 hPa10 kmWest (270°)5.6 km/hScattered Clouds
8:50 AM-2 °C-4 °C86 %1013.2 hPa10 kmVariable3.7 km/hMostly Cloudy
9:00 AM-1.7 °C-4.4 °C75 %1016.3 hPaSouth (180°)1.9 km/h
9:20 AM-2 °C-4 °C86 %1013.2 hPa10 kmVariable3.7 km/hMostly Cloudy
9:50 AM-2 °C-4 °C86 %1013.2 hPa10 kmVariable5.6 km/hMostly Cloudy
10:20 AM0 °C-4 °C75 %1013.2 hPa10 kmVariable3.7 km/hMostly Cloudy
10:50 AM0 °C-4 °C75 %1013.2 hPa10 kmVariable1.9 km/hMostly Cloudy
11:00 AM0 °C-4.4 °C61 %1015.9 hPaSW (230°)1.9 km/h
11:20 AM1 °C-4 °C70 %1013.2 hPa10 kmVariable3.7 km/hMostly Cloudy
11:50 AM1 °C-5 °C65 %1013.2 hPa10 kmVariable1.9 km/hMostly Cloudy
12:00 PM0.6 °C-5 °C57 %1015.9 hPaEast (80°)5.6 km/h
12:20 PM1 °C-4 °C70 %1013.2 hPa10 kmVariable3.7 km/hMostly Cloudy
12:50 PM2 °C-3 °C70 %1013.2 hPa10 kmVariable3.7 km/hMostly Cloudy
1:00 PM1.1 °C-5.6 °C50 %1015.2 hPa45.1 kmNE (50°)7.4 km/hScattered Clouds
1:20 PM3 °C-5 °C56 %1013.2 hPa10 kmNNE (30°)7.4 km/hScattered Clouds
1:50 PM3 °C-6 °C52 %1013.2 hPa10 kmENE (70°)13 km/hScattered Clouds
2:00 PM2.2 °C-7.8 °C34 %1014.9 hPaNE (40°)13 km/h
2:20 PM3 °C-7 °C48 %1013.2 hPa10 kmENE (60°)13 km/hScattered Clouds
2:50 PM3 °C-6 °C52 %1013.2 hPa10 kmNE (40°)11.1 km/hScattered Clouds
3:00 PM2.2 °C-7.8 °C35 %1014.9 hPaNE (50°)16.7 km/h
3:20 PM3 °C-7 °C48 %1013.2 hPa10 kmNE (40°)9.3 km/hScattered Clouds
3:50 PM3 °C-7 °C48 %1013.2 hPa10 kmNNE (30°)9.3 km/hPartly Cloudy
4:20 PM2 °C-6 °C56 %1013.2 hPa10 kmNNE (20°)11.1 km/hPartly Cloudy
4:50 PM2 °C-6 °C56 %1013.2 hPa10 kmNNW (330°)7.4 km/hScattered Clouds
5:00 PM1.7 °C-6.1 °C44 %1015.6 hPaNNE (20°)11.1 km/h
5:20 PM1 °C-4 °C70 %1013.2 hPa10 kmNNW (340°)7.4 km/hScattered Clouds
5:50 PM0 °C-4 °C75 %1014.2 hPa10 kmVariable3.7 km/hPartly Cloudy
6:00 PM0 °C-5.6 °C57 %1016.3 hPaNNW (340°)5.6 km/h
6:20 PM-1 °C-5 °C75 %1014.2 hPa10 kmNorth (360°)5.6 km/hPartly Cloudy
6:50 PM-1 °C-5 °C75 %1014.2 hPa10 kmNorth (360°)5.6 km/hPartly Cloudy
7:00 PM-1.7 °C-5.6 °C65 %1017.3 hPa45.1 kmNorth5.6 km/hScattered Clouds
7:20 PM-1 °C-5 °C75 %1015.2 hPa10 kmVariable3.7 km/hScattered Clouds
7:50 PM-1 °C-6 °C69 %1015.2 hPa10 kmVariable3.7 km/hPartly Cloudy
8:00 PM-1.7 °C-7.2 °C56 %1017.9 hPaNorth5.6 km/h
8:20 PM-2 °C-7 °C69 %1015.2 hPa10 kmNorth (350°)5.6 km/hPartly Cloudy
8:50 PM-2 °C-7 °C69 %1015.2 hPa10 kmVariable1.9 km/hPartly Cloudy
9:00 PM-1.7 °C-7.2 °C55 %1018.3 hPaEast (80°)1.9 km/h
9:20 PM-2 °C-6 °C74 %1016.3 hPa10 kmVariable1.9 km/hPartly Cloudy
9:50 PM-2 °C-6 °C74 %1016.3 hPa10 kmVariable3.7 km/hScattered Clouds
10:20 PM-2 °C-6 °C74 %1016.3 hPa10 kmVariable1.9 km/hScattered Clouds
10:50 PM-2 °C-6 °C74 %1016.3 hPa10 kmCalmPartly Cloudy
11:00 PM-2.8 °C-6.7 °C66 %1019.3 hPaWest (260°)1.9 km/h
11:20 PM-2 °C-6 °C74 %1016.3 hPa10 kmSW (230°)9.3 km/hPartly Cloudy
11:50 PM-2 °C-6 °C74 %1016.3 hPa10 kmSW (220°)7.4 km/hMostly Cloudy
Hourly data recorded from LSGG, located 0 kilometers away from Geneva, Switzerland







STORIES FROM OUR PARTNERS